カタログに戻る

QIANFAN-71

運用中通信PO
NORAD 62801·PAYLOAD·🇨🇳 China

打ち上げ Jan 23, 2025 から Taiyuan Satellite Launch Center

Loading…

次のパス (今後24時間)

TLE

最新Source: Space-Track

元期: Sep 14, 2026, 21:22 UTC

1 62801U 25016S   26257.89067948  .00000038  00000-0  41045-4 0  9993
2 62801  88.9659  74.3904 0013856 271.0539  88.9025 13.51026577 84529

AllMySatでQIANFAN-71をリアルタイム追跡

Download on the App Store